Flag for Turkey Weather past 2 weeks in Istanbul, Turkey

59 °F

Passing clouds.

Feels Like: 55 °F
Forecast: 59 / 66 °F
Wind: 21 mph from North

Location: Istanbul Ataturk Airport

Current Time: Oct 14, 2015 at 12:38:00 AM

Latest Report: Oct 13, 2015 at 11:50 PM

Visibility: N/A

Pressure: 30.15 "Hg

Humidity: 88%

Dew point: 55 °F

Location of IstanbulLocation

Historic Weather in Istanbul — Graph


Istanbul temperature yesterday

Maximum temperature yesterday: 61 °F (at 1:50 AM)
Minimum temperature yesterday: 55 °F (at 6:50 AM)
Average temperature yesterday: 57 °F

Past Weeks' High & Low Weather Summary

High79 °F (Oct 12, 3:20 PM)94% (Sep 29, 12:20 PM)30.33 "Hg (Sep 29, 12:20 PM)
Low55 °F (Oct 13, 6:50 AM)43% (Oct 9, 2:20 PM)29.77 "Hg (Oct 11, 8:50 PM)
Average66 °F75%30.05 "Hg
* Reported Sep 28 11:20 PM — Oct 13 11:20 PM, Istanbul, Weather by CustomWeather, © 2015

Note: Actual official high and low records may vary slightly from our data, if they occured in-between our weather recording intervals... More about our weather records


Istanbul weather history for previous 24 hours

Time TempWeatherWind HumidityBarometerVisibility
11:20 PM
Tue, Oct 13
59 °FPassing clouds.17 mph88%30.15 "HgN/A
10:50 PM59 °FPassing clouds.16 mph88%30.15 "HgN/A
10:20 PM59 °FPassing clouds.16 mph88%30.15 "HgN/A
9:50 PM59 °FPassing clouds.16 mph88%30.15 "HgN/A
9:20 PM59 °FPartly cloudy.17 mph82%30.15 "HgN/A
8:50 PM57 °FPartly cloudy.20 mph88%30.15 "HgN/A
8:20 PM57 °FPartly cloudy.16 mph88%30.15 "HgN/A
7:50 PM57 °FPartly cloudy.15 mph88%30.15 "HgN/A
7:20 PM57 °FBroken clouds.14 mph88%30.12 "HgN/A
6:50 PM57 °FPartly sunny.14 mph82%30.12 "HgN/A
6:20 PM57 °FPartly sunny.15 mph82%30.12 "HgN/A
5:50 PM57 °FOvercast.13 mph82%30.12 "HgN/A
5:20 PM57 °FPartly sunny.15 mph82%30.12 "HgN/A
4:50 PM57 °FPartly sunny.14 mph82%30.12 "HgN/A
4:20 PM57 °FMostly cloudy.15 mph82%30.12 "HgN/A
3:50 PM57 °FBroken clouds.17 mph82%30.12 "Hg5 mi
3:20 PM57 °FPartly sunny.16 mph82%30.12 "HgN/A
2:50 PM57 °FPartly sunny.16 mph82%30.12 "HgN/A
2:20 PM57 °FBroken clouds.15 mph82%30.12 "Hg4 mi
1:50 PM57 °FDrizzle. Mostly cloudy.14 mph82%30.09 "Hg4 mi
1:20 PM55 °FDrizzle. Cloudy.14 mph88%30.09 "Hg4 mi
12:50 PM55 °FFog.16 mph88%30.09 "Hg1 mi
12:20 PM57 °FFog.15 mph82%30.09 "Hg2 mi
11:50 AM57 °FBroken clouds.15 mph82%30.09 "HgN/A
11:20 AM57 °FBroken clouds.15 mph82%30.09 "HgN/A
10:50 AM57 °FBroken clouds.16 mph82%30.09 "HgN/A
10:20 AM57 °FBroken clouds.16 mph82%30.09 "HgN/A
9:50 AM57 °FBroken clouds.14 mph82%30.07 "HgN/A
9:20 AM55 °FBroken clouds.16 mph88%30.07 "HgN/A
8:50 AM57 °FBroken clouds.16 mph82%30.07 "HgN/A
8:20 AM57 °FBroken clouds.17 mph82%30.07 "HgN/A
7:50 AM57 °FPassing clouds.15 mph82%30.04 "HgN/A
7:20 AM57 °FPassing clouds.17 mph82%30.04 "HgN/A
6:50 AM55 °FPassing clouds.16 mph88%30.04 "HgN/A
6:20 AM57 °FPassing clouds.18 mph82%30.04 "HgN/A
5:50 AM57 °FPassing clouds.15 mph82%30.01 "HgN/A
5:20 AM57 °FPassing clouds.15 mph82%30.01 "HgN/A
4:50 AM57 °FPassing clouds.15 mph82%30.01 "HgN/A
4:20 AM57 °FPassing clouds.17 mph88%30.01 "HgN/A
3:50 AM57 °FPassing clouds.18 mph88%30.01 "HgN/A
3:20 AM57 °FPassing clouds.15 mph88%30.01 "HgN/A
2:50 AM57 °FPartly cloudy.18 mph88%30.01 "HgN/A
2:20 AM59 °FSprinkles. Partly cloudy.17 mph82%30.01 "HgN/A
1:50 AM61 °FSprinkles. Partly cloudy.15 mph83%30.01 "HgN/A
1:20 AM59 °FSprinkles. Partly cloudy.17 mph88%29.98 "HgN/A
12:50 AM59 °FSprinkles. Partly cloudy.18 mph88%29.98 "HgN/A
12:20 AM59 °FSprinkles. Partly cloudy.21 mph88%29.98 "HgN/A
Weather by CustomWeather, © 2015

See weather overviewHow to use our weather pages